This is the latest recevied weather packets stored in our database for station/object N7SWJ. If no packets are shown the sender has not sent any weather packets the latest 10 day(s).
| Time | Temp. | Humidity | Pressure | Rain* | Wind** | Luminosity | Snow |
|---|---|---|---|---|---|---|---|
| 1788136101 | 76° F | 50% | 765.1 mmHg | 0 in | - | 28 W/m² | - |
| 1788135800 | 77° F | 48% | 765.1 mmHg | 0 in | - | 37 W/m² | - |
| 1788135496 | 77° F | 49% | 765.1 mmHg | 0 in | - | 34 W/m² | - |
| 1788135191 | 77° F | 47% | 765.4 mmHg | 0 in | - | 44 W/m² | - |
| 1788134889 | 77° F | 47% | 765.1 mmHg | 0 in | - | 57 W/m² | - |
| 1788134588 | 77° F | 46% | 765.3 mmHg | 0 in | - | 50 W/m² | - |
| 1788134286 | 77° F | 47% | 765.4 mmHg | 0 in | - | 51 W/m² | - |
| 1788133981 | 77° F | 47% | 765.4 mmHg | 0 in | - | 52 W/m² | - |
| 1788133676 | 78° F | 46% | 765.3 mmHg | 0 in | - | 80 W/m² | - |
| 1788133372 | 78° F | 48% | 765.4 mmHg | 0 in | - | 64 W/m² | - |
| 1788133068 | 78° F | 47% | 765.3 mmHg | 0 in | - | 64 W/m² | - |
| 1788132763 | 78° F | 47% | 765.4 mmHg | 0 in | - | 63 W/m² | - |
| 1788132459 | 79° F | 45% | 765.1 mmHg | 0 in | - | 58 W/m² | - |
| 1788132155 | 81° F | 43% | 765.1 mmHg | 0 in | - | 96 W/m² | - |
| 1788131851 | 79° F | 44% | 765.4 mmHg | 0 in | - | 304 W/m² | - |
| 1788131550 | 79° F | 48% | 765.1 mmHg | 0 in | - | 145 W/m² | - |
| 1788131245 | 79° F | 46% | 765.4 mmHg | 0 in | - | 164 W/m² | - |
| 1788130941 | 78° F | 48% | 765.6 mmHg | 0 in | - | 237 W/m² | - |
| 1788130640 | 78° F | 49% | 765.3 mmHg | 0 in | - | 144 W/m² | - |
| 1788130336 | 77° F | 52% | 765.1 mmHg | 0 in | - | 392 W/m² | - |
| 1788130034 | 75° F | 57% | 765 mmHg | 0 in | - | 139 W/m² | - |
| 1788129731 | 75° F | 58% | 765.4 mmHg | 0 in | - | 132 W/m² | - |
| 1788129427 | 76° F | 57% | 765.3 mmHg | 0 in | - | 116 W/m² | - |
| 1788129123 | 75° F | 57% | 765.4 mmHg | 0 in | - | 121 W/m² | - |
| 1788128822 | 75° F | 57% | 765.3 mmHg | 0 in | - | 144 W/m² | - |
* Rain latest hour (hover to see other rain measurements)
** Current wind speed in m/s (hover to see current wind gust speed)